﻿_id,Station,Date,Leq 24Hr,Leq min,Leq max,Count Hr
1,ns01,2023-01-01T00:00:00,73.4,69.2,75.7,24
2,ns01,2023-01-02T00:00:00,72.4,66.9,74.7,24
3,ns01,2023-01-03T00:00:00,73.3,67.9,76.6,24
4,ns01,2023-01-04T00:00:00,73.4,67.9,75.9,24
5,ns01,2023-01-05T00:00:00,73.8,68.9,76.1,24
6,ns01,2023-01-06T00:00:00,73.7,69.1,75.8,24
7,ns01,2023-01-07T00:00:00,73.8,70.3,76.8,24
8,ns01,2023-01-08T00:00:00,73,70.1,74.2,24
9,ns01,2023-01-09T00:00:00,73.6,68.8,76.3,24
10,ns01,2023-01-10T00:00:00,74.2,68.7,79.6,24
11,ns01,2023-01-11T00:00:00,74.5,68.5,81,24
12,ns01,2023-01-12T00:00:00,73.6,69,75.9,24
13,ns01,2023-01-13T00:00:00,74.4,69.9,78.7,24
14,ns01,2023-01-14T00:00:00,73.7,70.9,75.1,24
15,ns01,2023-01-15T00:00:00,73.1,70.4,74.7,24
16,ns01,2023-01-16T00:00:00,74.2,68.8,77.5,24
17,ns01,2023-01-17T00:00:00,73.9,69.4,76.1,24
18,ns01,2023-01-18T00:00:00,74.1,68.9,76.8,24
19,ns01,2023-01-19T00:00:00,73.8,69.7,76.7,24
20,ns01,2023-01-20T00:00:00,74.1,70.2,75.8,24
21,ns01,2023-01-21T00:00:00,73.5,70.7,74.9,24
22,ns01,2023-01-22T00:00:00,72.9,70.5,75.1,24
23,ns01,2023-01-23T00:00:00,73.6,69.1,77.2,24
24,ns01,2023-01-24T00:00:00,73.5,68.4,75.6,24
25,ns01,2023-01-25T00:00:00,74.1,69.2,76.3,24
26,ns01,2023-01-26T00:00:00,73.4,67.9,75.4,24
27,ns01,2023-01-27T00:00:00,74.1,69.7,77.3,24
28,ns01,2023-01-28T00:00:00,73.6,70.8,76,24
29,ns01,2023-01-29T00:00:00,73.3,70.4,76,24
30,ns01,2023-01-30T00:00:00,74.1,68,77.2,24
31,ns01,2023-01-31T00:00:00,73.9,69.1,75.8,24
32,ns01,2023-02-01T00:00:00,73.9,69.1,77.7,24
33,ns01,2023-02-02T00:00:00,73.5,69,75.2,24
34,ns01,2023-02-03T00:00:00,73.7,68.5,76.6,24
35,ns01,2023-02-04T00:00:00,73.4,69,75.3,24
36,ns01,2023-02-05T00:00:00,73.1,70,77,24
37,ns01,2023-02-06T00:00:00,73.6,68.8,75.3,24
38,ns01,2023-02-07T00:00:00,73.6,68.7,75.6,24
39,ns01,2023-02-08T00:00:00,73.9,68.6,78.4,24
40,ns01,2023-02-09T00:00:00,74.2,69,78,24
41,ns01,2023-02-10T00:00:00,73.7,69.5,75.7,24
42,ns01,2023-02-11T00:00:00,74.2,69.7,78.2,24
43,ns01,2023-02-12T00:00:00,73.3,70.1,75,24
44,ns01,2023-02-13T00:00:00,74.1,69.8,76.2,24
45,ns01,2023-02-14T00:00:00,74.7,70.3,77.7,24
46,ns01,2023-02-15T00:00:00,74,68.6,77.1,24
47,ns01,2023-02-16T00:00:00,74.2,69.5,78.8,24
48,ns01,2023-02-17T00:00:00,74.2,69.2,77,24
49,ns01,2023-02-18T00:00:00,73.9,69.5,77.8,24
50,ns01,2023-02-19T00:00:00,72.8,69.8,74.6,24
51,ns01,2023-02-20T00:00:00,74.3,69.7,77,24
52,ns01,2023-02-21T00:00:00,73.8,69.1,76,24
53,ns01,2023-02-22T00:00:00,74.1,69.4,76.1,24
54,ns01,2023-02-23T00:00:00,73.5,68.9,75.5,24
55,ns01,2023-02-24T00:00:00,73.9,69.7,75.7,24
56,ns01,2023-02-25T00:00:00,74,70.9,77.7,24
57,ns01,2023-02-26T00:00:00,73.4,70.2,75.5,24
58,ns01,2023-02-27T00:00:00,73.8,69.2,75.7,24
59,ns01,2023-02-28T00:00:00,74,68.3,76,24
60,ns01,2023-03-01T00:00:00,73.6,69.5,75.7,24
61,ns01,2023-03-02T00:00:00,73.5,69.5,75.6,24
62,ns01,2023-03-03T00:00:00,73.7,69.5,75.2,24
63,ns01,2023-03-04T00:00:00,73.6,69.3,74.9,24
64,ns01,2023-03-05T00:00:00,72.6,70.9,73.5,24
65,ns01,2023-03-06T00:00:00,73,68.9,74.4,24
66,ns01,2023-03-07T00:00:00,73.5,69.1,75.5,24
67,ns01,2023-03-08T00:00:00,73.8,68.4,77.2,24
68,ns01,2023-03-09T00:00:00,73.5,68.5,75.9,24
69,ns01,2023-03-10T00:00:00,73.7,69.8,76.4,24
70,ns01,2023-03-11T00:00:00,73.5,70.2,75.1,24
71,ns01,2023-03-12T00:00:00,73.1,70.5,76.3,24
72,ns01,2023-03-13T00:00:00,73.7,69.1,76.6,24
73,ns01,2023-03-14T00:00:00,73.9,68.2,76.1,24
74,ns01,2023-03-15T00:00:00,73.9,69.2,78.3,24
75,ns01,2023-03-16T00:00:00,73.6,68.6,75.8,24
76,ns01,2023-03-17T00:00:00,73.5,69.5,75.6,24
77,ns01,2023-03-18T00:00:00,73.4,70,75.5,24
78,ns01,2023-03-19T00:00:00,72.7,69.6,73.9,24
79,ns01,2023-03-20T00:00:00,73.7,69.3,75.5,24
80,ns01,2023-03-21T00:00:00,73.7,70.3,75.9,24
81,ns01,2023-03-22T00:00:00,73.7,68.7,77.8,24
82,ns01,2023-03-23T00:00:00,73.8,68.7,77.9,24
83,ns01,2023-03-24T00:00:00,73.8,70.2,76.2,24
84,ns01,2023-03-25T00:00:00,73.5,70.2,75.4,24
85,ns01,2023-03-26T00:00:00,73.2,69.5,79.2,24
86,ns01,2023-03-27T00:00:00,73.4,69.2,75.1,24
87,ns01,2023-03-28T00:00:00,73.7,69.6,75.8,24
88,ns01,2023-03-29T00:00:00,73.6,69.9,78.1,24
89,ns01,2023-03-30T00:00:00,73.8,68.4,78.5,24
90,ns01,2023-03-31T00:00:00,74,68.7,76.2,24
91,ns01,2023-04-01T00:00:00,73.6,69.9,77.3,24
92,ns01,2023-04-02T00:00:00,73.1,70.3,76.3,24
93,ns01,2023-04-03T00:00:00,73.7,68.3,78.6,24
94,ns01,2023-04-04T00:00:00,73.5,68.8,77.9,24
95,ns01,2023-04-05T00:00:00,73.5,69.7,75.5,24
96,ns01,2023-04-06T00:00:00,73.2,67.2,76.4,24
97,ns01,2023-04-07T00:00:00,73.5,70,75,24
98,ns01,2023-04-08T00:00:00,73.7,69.5,77.1,24
99,ns01,2023-04-09T00:00:00,72.5,69.2,73.9,24
100,ns01,2023-04-10T00:00:00,73.6,69.6,77.8,24
101,ns01,2023-04-11T00:00:00,73.5,69.4,76.6,24
102,ns01,2023-04-12T00:00:00,73.9,69.5,78.2,24
103,ns01,2023-04-13T00:00:00,74.6,69.6,78.7,24
104,ns01,2023-04-14T00:00:00,74.1,71.1,76.5,24
105,ns01,2023-04-15T00:00:00,74.3,71,77,24
106,ns01,2023-04-16T00:00:00,72.8,70.8,75.5,24
107,ns01,2023-04-17T00:00:00,72.5,66.7,74.1,24
108,ns01,2023-04-18T00:00:00,73.3,69.3,75,24
109,ns01,2023-04-19T00:00:00,73.1,67.7,75.4,24
110,ns01,2023-04-20T00:00:00,73,67.8,74.7,24
111,ns01,2023-04-21T00:00:00,73.4,69.2,75.5,24
112,ns01,2023-04-22T00:00:00,73,67.8,74.8,24
113,ns01,2023-04-23T00:00:00,72.1,68.8,73.6,24
114,ns01,2023-04-24T00:00:00,73,68.7,75.2,24
115,ns01,2023-04-25T00:00:00,73.5,69.4,78.1,24
116,ns01,2023-04-26T00:00:00,73.3,68.4,75.3,24
117,ns01,2023-04-27T00:00:00,73.4,69.1,74.9,24
118,ns01,2023-04-28T00:00:00,73.4,68.5,74.8,24
119,ns01,2023-04-29T00:00:00,73.2,68.8,77,24
120,ns01,2023-04-30T00:00:00,72.6,69.8,74.5,24
121,ns01,2023-05-01T00:00:00,72.5,68.3,74.4,24
122,ns01,2023-05-02T00:00:00,73.2,68.8,74.9,24
123,ns01,2023-05-03T00:00:00,74,70.1,78.6,24
124,ns01,2023-05-04T00:00:00,72.8,70.3,75.2,24
125,ns01,2023-05-05T00:00:00,72.8,68.8,74.4,24
126,ns01,2023-05-06T00:00:00,73.1,69,76.9,24
127,ns01,2023-05-07T00:00:00,72.3,68.7,74.8,24
128,ns01,2023-05-08T00:00:00,73.5,69.2,76.4,24
129,ns01,2023-05-09T00:00:00,73.5,68.6,78.7,24
130,ns01,2023-05-10T00:00:00,74.3,68.5,82.6,24
131,ns01,2023-05-11T00:00:00,73.6,69.9,76.6,24
132,ns01,2023-05-12T00:00:00,73.5,69.1,75.1,24
133,ns01,2023-05-13T00:00:00,73.2,68.4,76.5,24
134,ns01,2023-05-14T00:00:00,72,69.1,73.5,24
135,ns01,2023-05-15T00:00:00,73.2,67.9,75.8,24
136,ns01,2023-05-16T00:00:00,73.3,68.5,77.5,24
137,ns01,2023-05-17T00:00:00,72.6,69.2,74.6,24
138,ns01,2023-05-18T00:00:00,74,68.6,78.5,24
139,ns01,2023-05-19T00:00:00,73.7,68.6,77,24
140,ns01,2023-05-20T00:00:00,73,69.3,74.7,24
141,ns01,2023-05-21T00:00:00,72.5,68.7,74.3,24
142,ns01,2023-05-22T00:00:00,74.3,68.2,81.2,24
143,ns01,2023-05-23T00:00:00,73.4,68,75.7,24
144,ns01,2023-05-24T00:00:00,73.3,68.3,75.6,24
145,ns01,2023-05-25T00:00:00,74,68.6,77.4,24
146,ns01,2023-05-26T00:00:00,74.3,69.4,76.3,24
147,ns01,2023-05-27T00:00:00,73.7,70,75.7,24
148,ns01,2023-05-28T00:00:00,73.2,70.3,75.5,24
149,ns01,2023-05-29T00:00:00,73.9,69.6,76.4,24
150,ns01,2023-05-30T00:00:00,74.2,68.6,77.5,24
151,ns01,2023-05-31T00:00:00,74.1,69.1,76.3,24
152,ns01,2023-06-01T00:00:00,74.5,70.3,76.9,24
153,ns01,2023-06-02T00:00:00,74.3,70.9,76.6,24
154,ns01,2023-06-03T00:00:00,74.1,71.5,76.6,24
155,ns01,2023-06-04T00:00:00,73.9,70.4,78.3,24
156,ns01,2023-06-05T00:00:00,74.3,69.8,78.2,24
157,ns01,2023-06-06T00:00:00,74.5,70.4,76.4,24
158,ns01,2023-06-07T00:00:00,74.4,70.2,76.9,24
159,ns01,2023-06-08T00:00:00,74.5,69.2,76.5,24
160,ns01,2023-06-09T00:00:00,74.4,70.1,77.2,24
161,ns01,2023-06-10T00:00:00,74,71.4,75.8,24
162,ns01,2023-06-11T00:00:00,73.8,72.3,75,24
163,ns01,2023-06-12T00:00:00,74.1,69.7,76.9,24
164,ns01,2023-06-13T00:00:00,74.5,70.4,76.3,24
165,ns01,2023-06-14T00:00:00,74.3,70.2,76.7,24
166,ns01,2023-06-15T00:00:00,74.5,71,77.2,24
167,ns01,2023-06-16T00:00:00,74.5,70.5,77.3,24
168,ns01,2023-06-17T00:00:00,74.3,70,79.8,24
169,ns01,2023-06-18T00:00:00,73.5,69.2,78.7,24
170,ns01,2023-06-19T00:00:00,74.3,69.1,78.3,24
171,ns01,2023-06-20T00:00:00,74.1,69.6,76.9,24
172,ns01,2023-06-21T00:00:00,74.4,70.7,76.4,24
173,ns01,2023-06-22T00:00:00,74.3,70.1,77.3,24
174,ns01,2023-06-23T00:00:00,74.2,71.4,76.2,24
175,ns01,2023-06-24T00:00:00,75,71.4,81.3,24
176,ns01,2023-06-25T00:00:00,73.9,71.1,77.3,24
177,ns01,2023-06-26T00:00:00,74.3,69.5,77.2,24
178,ns01,2023-06-27T00:00:00,74.3,68.9,79.6,24
179,ns01,2023-06-28T00:00:00,74.1,69.6,76.5,24
180,ns01,2023-06-29T00:00:00,74.4,71.8,76.9,24
181,ns01,2023-06-30T00:00:00,75,70.5,81.6,24
182,ns01,2023-07-01T00:00:00,74.3,71.3,75.7,24
183,ns01,2023-07-02T00:00:00,73.7,71.3,76.7,24
184,ns01,2023-07-03T00:00:00,74.1,68.9,76.5,24
185,ns01,2023-07-04T00:00:00,74.7,71.5,78.2,24
186,ns01,2023-07-05T00:00:00,73.9,69.5,76.6,24
187,ns01,2023-07-06T00:00:00,74.5,70.7,76.3,24
188,ns01,2023-07-07T00:00:00,74.8,70.9,78.2,24
189,ns01,2023-07-08T00:00:00,74.2,70.6,76.5,24
190,ns01,2023-07-09T00:00:00,73.7,71,78.7,24
191,ns01,2023-07-10T00:00:00,74.5,69.6,76.5,24
192,ns01,2023-07-11T00:00:00,74.7,70.4,78.9,24
193,ns01,2023-07-12T00:00:00,74.3,70.3,76.4,24
194,ns01,2023-07-13T00:00:00,74.3,70.2,76.3,24
195,ns01,2023-07-14T00:00:00,74.6,70,77.1,24
196,ns01,2023-07-15T00:00:00,74.2,71,76,24
197,ns01,2023-07-16T00:00:00,74,71.5,78.3,24
198,ns01,2023-07-17T00:00:00,75.8,71.1,81,24
199,ns01,2023-07-18T00:00:00,74.8,70.5,80.2,24
200,ns01,2023-07-19T00:00:00,74.5,70.4,78.2,24
201,ns01,2023-07-20T00:00:00,73.9,70.7,76.1,24
202,ns01,2023-07-21T00:00:00,74.6,69.1,76.4,24
203,ns01,2023-07-22T00:00:00,74.1,70.9,78.6,24
204,ns01,2023-07-23T00:00:00,73.6,70.3,76.3,24
205,ns01,2023-07-24T00:00:00,74.2,68.7,76.3,24
206,ns01,2023-07-25T00:00:00,74.3,70.3,76.5,24
207,ns01,2023-07-26T00:00:00,74.2,70.2,76.4,24
208,ns01,2023-07-27T00:00:00,74.5,70,76.8,24
209,ns01,2023-07-28T00:00:00,75.1,71.3,80.3,24
210,ns01,2023-07-29T00:00:00,74.3,70.8,76.8,24
211,ns01,2023-07-30T00:00:00,74,72.1,77.7,24
212,ns01,2023-07-31T00:00:00,74.4,70.7,77.4,24
213,ns01,2023-08-01T00:00:00,74.1,71.8,76.2,24
214,ns01,2023-08-02T00:00:00,73.9,70.1,75.6,24
215,ns01,2023-08-03T00:00:00,74.2,70.7,76.7,24
216,ns01,2023-08-04T00:00:00,74.8,70,78.2,24
217,ns01,2023-08-05T00:00:00,74.6,71.8,77.5,24
218,ns01,2023-08-06T00:00:00,73.8,72.3,75.8,24
219,ns01,2023-08-07T00:00:00,74.5,70.3,77,24
220,ns01,2023-08-08T00:00:00,74.6,70,78.5,24
221,ns01,2023-08-09T00:00:00,74.3,70.1,76.1,24
222,ns01,2023-08-10T00:00:00,74.7,71,76.8,24
223,ns01,2023-08-11T00:00:00,75,71.8,77.3,24
224,ns01,2023-08-12T00:00:00,75.9,72,80.3,24
225,ns01,2023-08-13T00:00:00,74.3,72,78.6,24
226,ns01,2023-08-14T00:00:00,74.1,71.4,76,24
227,ns01,2023-08-15T00:00:00,74.9,71.5,78.6,24
228,ns01,2023-08-16T00:00:00,75.4,71.4,81.7,24
229,ns01,2023-08-17T00:00:00,74.5,70.8,77.8,24
230,ns01,2023-08-18T00:00:00,74.6,71.1,76.3,24
231,ns01,2023-08-19T00:00:00,75.1,72.1,78.9,24
232,ns01,2023-08-20T00:00:00,73.7,70.2,75.7,24
233,ns01,2023-08-21T00:00:00,74.3,69.4,77.1,24
234,ns01,2023-08-22T00:00:00,74.5,68.8,77.9,24
235,ns01,2023-08-23T00:00:00,74.5,70.5,77.4,24
236,ns01,2023-08-24T00:00:00,74.5,70.4,76.9,24
237,ns01,2023-08-25T00:00:00,74.2,70,76.9,24
238,ns01,2023-08-26T00:00:00,74.5,71,77.3,24
239,ns01,2023-08-27T00:00:00,73.9,72.3,76.2,24
240,ns01,2023-08-28T00:00:00,74.6,71.3,78.2,24
241,ns01,2023-08-29T00:00:00,74.4,70.6,77,24
242,ns01,2023-08-30T00:00:00,74.6,70.5,77.8,24
243,ns01,2023-08-31T00:00:00,74.4,69.6,76.9,24
244,ns01,2023-09-01T00:00:00,74,68.9,76.3,24
245,ns01,2023-09-02T00:00:00,75.2,72.5,79.5,24
246,ns01,2023-09-03T00:00:00,73.7,71.7,75.9,24
247,ns01,2023-09-04T00:00:00,74.2,68.7,77.2,24
248,ns01,2023-09-05T00:00:00,74.9,70.3,78.8,24
249,ns01,2023-09-06T00:00:00,74.4,70.2,76,24
250,ns01,2023-09-07T00:00:00,74.8,70.9,78.6,24
251,ns01,2023-09-08T00:00:00,74.7,70.2,78.9,24
252,ns01,2023-09-09T00:00:00,74.1,71,76.2,24
253,ns01,2023-09-10T00:00:00,73.6,70.2,77.4,24
254,ns01,2023-09-11T00:00:00,74.1,68.6,76.5,24
255,ns01,2023-09-12T00:00:00,74.4,69.9,76.3,24
256,ns01,2023-09-13T00:00:00,74.5,70.9,77.1,24
257,ns01,2023-09-14T00:00:00,74.5,70.4,76.9,24
258,ns01,2023-09-15T00:00:00,74.5,69.6,77.8,24
259,ns01,2023-09-16T00:00:00,74.1,71.9,76.5,24
260,ns01,2023-09-17T00:00:00,74.1,71.2,78.4,24
261,ns01,2023-09-18T00:00:00,74.4,69.2,77.9,24
262,ns01,2023-09-19T00:00:00,74.2,71.3,76.8,24
263,ns01,2023-09-20T00:00:00,74.4,71.2,76.9,24
264,ns01,2023-09-21T00:00:00,74.5,70,76.9,24
265,ns01,2023-09-22T00:00:00,75.1,69.1,78.7,24
266,ns01,2023-09-23T00:00:00,74.9,70.7,78.7,24
267,ns01,2023-09-24T00:00:00,73.7,71,75.1,24
268,ns01,2023-09-25T00:00:00,74.5,70.5,77.8,24
269,ns01,2023-09-26T00:00:00,74.6,70,79.5,24
270,ns01,2023-09-27T00:00:00,74.4,69,77.2,24
271,ns01,2023-09-28T00:00:00,74.3,70.3,77.2,24
272,ns01,2023-09-29T00:00:00,74.5,69.8,77.3,24
273,ns01,2023-09-30T00:00:00,74.1,70.8,75.9,24
274,ns01,2023-10-01T00:00:00,73.6,70.7,75.7,24
275,ns01,2023-10-02T00:00:00,74.6,71.1,77.6,24
276,ns01,2023-10-03T00:00:00,74.7,70.2,79.5,24
277,ns01,2023-10-04T00:00:00,74.3,68.7,76.7,24
278,ns01,2023-10-05T00:00:00,74.5,70.5,77,24
279,ns01,2023-10-06T00:00:00,74.6,70.3,76.6,24
280,ns01,2023-10-07T00:00:00,74.2,71.2,76.2,24
281,ns01,2023-10-08T00:00:00,74.1,72.5,77.3,24
282,ns01,2023-10-09T00:00:00,74.6,70.7,77.7,24
283,ns01,2023-10-10T00:00:00,74.5,71.1,77.3,24
284,ns01,2023-10-11T00:00:00,74.3,70.8,76.3,24
285,ns01,2023-10-12T00:00:00,75.2,71.7,80.6,24
286,ns01,2023-10-13T00:00:00,74.4,71.4,76,24
287,ns01,2023-10-14T00:00:00,75.2,72.6,80.7,24
288,ns01,2023-10-15T00:00:00,74.8,72.4,79.5,24
289,ns01,2023-10-16T00:00:00,74.6,69.9,76.1,24
290,ns01,2023-10-17T00:00:00,75.7,70.6,80.2,24
291,ns01,2023-10-18T00:00:00,74.5,70.7,76.4,24
292,ns01,2023-10-19T00:00:00,75.5,71.1,78,24
293,ns01,2023-10-20T00:00:00,75.2,70.3,78.7,24
294,ns01,2023-10-21T00:00:00,75.3,71.9,80.5,24
295,ns01,2023-10-22T00:00:00,73.8,70.6,75.7,24
296,ns01,2023-10-23T00:00:00,76.4,71.2,82.8,24
297,ns01,2023-10-24T00:00:00,74.8,70.7,76.3,24
298,ns01,2023-10-25T00:00:00,74.7,71.3,76.8,24
299,ns01,2023-10-26T00:00:00,74.7,71.3,76.8,24
300,ns01,2023-10-27T00:00:00,74.4,71.2,76.2,24
301,ns01,2023-10-28T00:00:00,74.8,72.1,76.3,24
302,ns01,2023-10-29T00:00:00,74,71.1,76.4,24
303,ns01,2023-10-30T00:00:00,74.4,71,76.7,24
304,ns01,2023-10-31T00:00:00,74.6,70.2,77,24
305,ns01,2023-11-01T00:00:00,74.9,72.4,77.5,24
306,ns01,2023-11-02T00:00:00,74.9,70.4,77.1,24
307,ns01,2023-11-03T00:00:00,74.8,69.7,76.2,24
308,ns01,2023-11-04T00:00:00,74.2,71.5,76.3,24
309,ns01,2023-11-05T00:00:00,74.1,71.5,77.4,24
310,ns01,2023-11-06T00:00:00,74.6,72,76.1,24
311,ns01,2023-11-07T00:00:00,74.1,68.9,76.7,24
312,ns01,2023-11-08T00:00:00,73.3,69.4,75.7,24
313,ns01,2023-11-09T00:00:00,74.6,69.6,77.5,24
314,ns01,2023-11-10T00:00:00,74.5,69.4,79.9,24
315,ns01,2023-11-11T00:00:00,72.2,62.1,75.6,24
316,ns01,2023-11-12T00:00:00,72.3,55.4,78.2,24
317,ns01,2023-11-13T00:00:00,74.3,70.3,76.4,24
318,ns01,2023-11-14T00:00:00,74.3,70,77.8,24
319,ns01,2023-11-15T00:00:00,74.4,70.9,76.1,24
320,ns01,2023-11-16T00:00:00,74.2,56.5,76.3,24
321,ns01,2023-11-17T00:00:00,74.8,54.6,78.9,24
322,ns01,2023-11-18T00:00:00,74.5,72,76.7,24
323,ns01,2023-11-19T00:00:00,74.3,71.8,76.7,24
324,ns01,2023-11-20T00:00:00,74.8,70.6,77.2,24
325,ns01,2023-11-21T00:00:00,74.6,71,76.2,24
326,ns01,2023-11-22T00:00:00,75.4,70.9,80.8,24
327,ns01,2023-11-23T00:00:00,74.6,70.4,79.6,24
328,ns01,2023-11-24T00:00:00,74.3,71.3,77.7,24
329,ns01,2023-11-25T00:00:00,74.2,71.4,76.2,24
330,ns01,2023-11-26T00:00:00,74.2,72.5,76.5,24
331,ns01,2023-11-27T00:00:00,75.4,70.8,77.8,24
332,ns01,2023-11-28T00:00:00,75.5,71.5,79.4,24
333,ns01,2023-11-29T00:00:00,74.7,70.7,78,24
334,ns01,2023-11-30T00:00:00,74.9,71.8,76.8,24
335,ns01,2023-12-01T00:00:00,74.9,71.3,76.5,24
336,ns01,2023-12-02T00:00:00,73.4,60.1,77.4,24
337,ns01,2023-12-03T00:00:00,74.3,72.7,75.9,24
338,ns01,2023-12-04T00:00:00,74,53.6,78.1,24
339,ns01,2023-12-05T00:00:00,76,73.3,81.2,24
340,ns01,2023-12-06T00:00:00,75.7,72,81,24
341,ns01,2023-12-07T00:00:00,75.2,70.3,78.5,24
342,ns01,2023-12-08T00:00:00,75.5,71.7,79.3,24
343,ns01,2023-12-09T00:00:00,75.4,72.3,78.2,24
344,ns01,2023-12-10T00:00:00,75.4,72,79.2,24
345,ns01,2023-12-11T00:00:00,74.2,71.6,77.3,24
346,ns01,2023-12-12T00:00:00,74.9,72.2,77.1,24
347,ns01,2023-12-13T00:00:00,75,70,78.9,24
348,ns01,2023-12-14T00:00:00,75,71.2,79.4,24
349,ns01,2023-12-15T00:00:00,74.9,70.8,77.5,24
350,ns01,2023-12-16T00:00:00,75,71.7,78.8,24
351,ns01,2023-12-17T00:00:00,74,72.5,75.6,24
352,ns01,2023-12-18T00:00:00,74.4,69.8,76.2,24
353,ns01,2023-12-19T00:00:00,74.6,70.9,76.5,24
354,ns01,2023-12-20T00:00:00,74.4,71.4,76.2,24
355,ns01,2023-12-21T00:00:00,75.4,70.9,79.2,24
356,ns01,2023-12-22T00:00:00,75.3,71.1,78.8,24
357,ns01,2023-12-23T00:00:00,75.3,70.8,77.5,24
358,ns01,2023-12-24T00:00:00,74.8,71.6,78.6,24
359,ns01,2023-12-25T00:00:00,75.5,71.8,77.9,24
360,ns01,2023-12-26T00:00:00,75.6,72.5,80.1,24
361,ns01,2023-12-27T00:00:00,75.5,70.3,78.2,24
362,ns01,2023-12-28T00:00:00,75,71.8,76.6,24
363,ns01,2023-12-29T00:00:00,75.1,68.6,78.7,24
364,ns01,2023-12-30T00:00:00,74.8,70.3,81.4,24
365,ns01,2023-12-31T00:00:00,73.8,69.9,76.3,24
366,ns02,2023-01-01T00:00:00,62.4,46.7,75,24
367,ns02,2023-01-02T00:00:00,55.1,46.9,61.7,24
368,ns02,2023-01-03T00:00:00,55.9,48.1,60.1,24
369,ns02,2023-01-04T00:00:00,55.5,46.9,59.5,24
370,ns02,2023-01-05T00:00:00,54.6,45.9,59.9,24
371,ns02,2023-01-06T00:00:00,54.1,48,60.3,24
372,ns02,2023-01-07T00:00:00,55,46.9,64.5,24
373,ns02,2023-01-08T00:00:00,54.1,48.1,63.4,24
374,ns02,2023-01-09T00:00:00,53.9,47,58.1,24
375,ns02,2023-01-10T00:00:00,52.1,47.4,56.8,24
376,ns02,2023-01-11T00:00:00,55.5,47.2,63.3,24
377,ns02,2023-01-12T00:00:00,58.7,48,66.5,24
378,ns02,2023-01-13T00:00:00,54.9,50.7,57.9,24
379,ns02,2023-01-14T00:00:00,54.7,49.5,60,24
380,ns02,2023-01-15T00:00:00,54.5,47.4,64.2,24
381,ns02,2023-01-16T00:00:00,53,48.3,56.6,24
382,ns02,2023-01-17T00:00:00,53.3,46.5,57,24
383,ns02,2023-01-18T00:00:00,53.1,45.8,57.7,24
384,ns02,2023-01-19T00:00:00,53.2,46.5,59.5,24
385,ns02,2023-01-20T00:00:00,52.6,44.8,56.8,24
386,ns02,2023-01-21T00:00:00,55.2,45.3,63.2,24
387,ns02,2023-01-22T00:00:00,52.2,45.7,57.2,24
388,ns02,2023-01-23T00:00:00,52.3,45,56.9,24
389,ns02,2023-01-24T00:00:00,53.1,45.2,58.1,24
390,ns02,2023-01-25T00:00:00,56,46.6,63,24
391,ns02,2023-01-26T00:00:00,54.9,47.8,61.6,24
392,ns02,2023-01-27T00:00:00,55.1,48.5,59.1,24
393,ns02,2023-01-28T00:00:00,57.5,47.9,64.4,24
394,ns02,2023-01-29T00:00:00,56.6,45.5,63,24
395,ns02,2023-01-30T00:00:00,51.8,45.2,56.3,24
396,ns02,2023-01-31T00:00:00,55,49.7,60.6,24
397,ns02,2023-02-01T00:00:00,58.8,50.4,64.3,24
398,ns02,2023-02-02T00:00:00,57,49.7,63.5,24
399,ns02,2023-02-03T00:00:00,58.3,47.7,63,24
400,ns02,2023-02-04T00:00:00,58.4,49.8,66.8,24
401,ns02,2023-02-05T00:00:00,59.3,48.9,66.5,24
402,ns02,2023-02-06T00:00:00,57.1,49.6,62.1,24
403,ns02,2023-02-07T00:00:00,57.8,50.6,62,24
404,ns02,2023-02-08T00:00:00,57.3,49.7,61.6,24
405,ns02,2023-02-09T00:00:00,70.2,52.1,78,24
406,ns02,2023-02-10T00:00:00,71.6,51.4,79,24
407,ns02,2023-02-11T00:00:00,64.3,48.7,71.5,24
408,ns02,2023-02-12T00:00:00,58.8,45.7,65.2,24
409,ns02,2023-02-13T00:00:00,59.4,49.1,64.7,24
410,ns02,2023-02-14T00:00:00,60.2,46.5,65,24
411,ns02,2023-02-15T00:00:00,57.9,48.9,63.6,24
412,ns02,2023-02-16T00:00:00,55.3,46.6,59.7,24
413,ns02,2023-02-17T00:00:00,55.7,46.6,60.1,24
414,ns02,2023-02-18T00:00:00,53.5,45.7,57.1,24
415,ns02,2023-02-19T00:00:00,54.6,43.4,61.3,24
416,ns02,2023-02-20T00:00:00,54.2,41.9,62.5,24
417,ns02,2023-02-21T00:00:00,53,39.2,60.1,24
418,ns02,2023-02-22T00:00:00,52.9,45.6,57.4,24
419,ns02,2023-02-23T00:00:00,52.9,48.3,57.6,24
420,ns02,2023-02-24T00:00:00,53.2,43.6,57.3,24
421,ns02,2023-02-25T00:00:00,50.8,43.4,55.1,24
422,ns02,2023-02-26T00:00:00,51.1,44.9,56.8,24
423,ns02,2023-02-27T00:00:00,52.4,44.8,57.6,24
424,ns02,2023-02-28T00:00:00,52.8,44,58.2,24
425,ns02,2023-03-01T00:00:00,53.6,46.3,58.6,24
426,ns02,2023-03-02T00:00:00,54.2,44.9,57.9,24
427,ns02,2023-03-03T00:00:00,56.7,44.6,64.2,24
428,ns02,2023-03-04T00:00:00,56.7,46.1,64,24
429,ns02,2023-03-05T00:00:00,57.4,47.6,63.3,24
430,ns02,2023-03-06T00:00:00,58.1,49.4,63.9,24
431,ns02,2023-03-07T00:00:00,58.9,49.3,65.6,24
432,ns02,2023-03-08T00:00:00,60.3,47.9,67.6,24
433,ns02,2023-03-09T00:00:00,60.4,47.6,67.5,24
434,ns02,2023-03-10T00:00:00,59.6,46.8,66.5,24
435,ns02,2023-03-11T00:00:00,60.4,47.2,66.7,24
436,ns02,2023-03-12T00:00:00,61.2,46.4,67.2,24
437,ns02,2023-03-13T00:00:00,61,43.8,67,24
438,ns02,2023-03-14T00:00:00,59.4,45.4,66.8,24
439,ns02,2023-03-15T00:00:00,59.2,46.2,67,24
440,ns02,2023-03-16T00:00:00,62.4,51.1,67.5,24
441,ns02,2023-03-17T00:00:00,62,49.4,68.1,24
442,ns02,2023-03-18T00:00:00,60.8,47.7,68.2,24
443,ns02,2023-03-19T00:00:00,58,49.3,64.9,24
444,ns02,2023-03-20T00:00:00,56,45.6,63.6,24
445,ns02,2023-03-21T00:00:00,58.2,47.2,67.5,24
446,ns02,2023-03-22T00:00:00,63.8,47.6,71.7,24
447,ns02,2023-03-23T00:00:00,58.3,48.2,67.2,24
448,ns02,2023-03-24T00:00:00,59.8,49.5,66.8,24
449,ns02,2023-03-25T00:00:00,57.6,48.7,65.7,24
450,ns02,2023-03-26T00:00:00,55.1,45.3,63.4,24
451,ns02,2023-03-27T00:00:00,59.3,45.9,66.6,24
452,ns02,2023-03-28T00:00:00,58.5,47.4,66.8,24
453,ns02,2023-03-29T00:00:00,54.9,47.8,61,24
454,ns02,2023-03-30T00:00:00,56.6,48.7,62,24
455,ns02,2023-03-31T00:00:00,57.4,51.1,63.4,24
456,ns02,2023-04-01T00:00:00,57,49.2,61.7,24
457,ns02,2023-04-02T00:00:00,56.3,45.8,61.6,24
458,ns02,2023-04-03T00:00:00,55.6,46.9,59.5,24
459,ns02,2023-04-04T00:00:00,55.7,45.4,60.5,24
460,ns02,2023-04-05T00:00:00,52.1,44.8,55,24
461,ns02,2023-04-06T00:00:00,53.9,43.2,64.8,24
462,ns02,2023-04-07T00:00:00,52.1,44.6,56.3,24
463,ns02,2023-04-08T00:00:00,59.1,44.5,71.6,24
464,ns02,2023-04-09T00:00:00,52.8,45.2,56.6,24
465,ns02,2023-04-10T00:00:00,53.7,44.4,58.8,24
466,ns02,2023-04-11T00:00:00,54.5,45,60.1,24
467,ns02,2023-04-12T00:00:00,52.2,44.2,56.6,24
468,ns02,2023-04-13T00:00:00,51.9,42.7,56.6,24
469,ns02,2023-04-14T00:00:00,51.5,45.6,55.6,24
470,ns02,2023-04-15T00:00:00,50.5,43.4,54.1,24
471,ns02,2023-04-16T00:00:00,50.4,42.4,54,24
472,ns02,2023-04-17T00:00:00,50.8,41.9,55.4,24
473,ns02,2023-04-18T00:00:00,52,42.6,56.5,24
474,ns02,2023-04-19T00:00:00,53.1,42,57.9,24
475,ns02,2023-04-20T00:00:00,51.7,42.6,55.8,24
476,ns02,2023-04-21T00:00:00,51.7,42.2,55.7,24
477,ns02,2023-04-22T00:00:00,50.6,43,54.1,24
478,ns02,2023-04-23T00:00:00,50.9,42,55.8,24
479,ns02,2023-04-24T00:00:00,50.9,42.5,56.3,24
480,ns02,2023-04-25T00:00:00,52,41.9,56.3,24
481,ns02,2023-04-26T00:00:00,53.5,45,58.6,24
482,ns02,2023-04-27T00:00:00,52.8,44.7,57.2,24
483,ns02,2023-04-28T00:00:00,52.3,44.4,56,24
484,ns02,2023-04-29T00:00:00,56.6,45.2,68.8,24
485,ns02,2023-04-30T00:00:00,55.2,43.1,64.7,24
486,ns02,2023-05-01T00:00:00,57.5,45.7,69.5,24
487,ns02,2023-05-02T00:00:00,62.7,45.9,76,24
488,ns02,2023-05-03T00:00:00,52.6,46.1,57.6,24
489,ns02,2023-05-04T00:00:00,50.4,42.6,54.5,24
490,ns02,2023-05-05T00:00:00,52.6,40.9,58.1,24
491,ns02,2023-05-06T00:00:00,61.7,42.3,72.2,24
492,ns02,2023-05-07T00:00:00,52.4,41.2,58.8,24
493,ns02,2023-05-08T00:00:00,55.8,43.4,63.3,24
494,ns02,2023-05-09T00:00:00,54.6,41.6,63.2,24
495,ns02,2023-05-10T00:00:00,56.6,51.1,64.6,24
496,ns02,2023-05-11T00:00:00,52.1,43.6,55.3,24
497,ns02,2023-05-12T00:00:00,57.8,43.7,70.1,24
498,ns02,2023-05-13T00:00:00,51.6,42.3,56.3,24
499,ns02,2023-05-14T00:00:00,58.2,42.9,69,24
500,ns02,2023-05-15T00:00:00,55,50.7,59.9,24
501,ns02,2023-05-16T00:00:00,56.3,43.9,64.8,24
502,ns02,2023-05-17T00:00:00,50,41.2,55.8,24
503,ns02,2023-05-18T00:00:00,58.8,42.6,68.5,24
504,ns02,2023-05-19T00:00:00,51.6,45.5,56.2,24
505,ns02,2023-05-20T00:00:00,50.8,45,55.8,24
506,ns02,2023-05-21T00:00:00,55.2,44.1,65.4,24
507,ns02,2023-05-22T00:00:00,53.4,45.1,58.4,24
508,ns02,2023-05-23T00:00:00,61.4,49.4,71.5,24
509,ns02,2023-05-24T00:00:00,55.2,49.8,60.9,24
510,ns02,2023-05-25T00:00:00,53.2,45.5,57.6,24
511,ns02,2023-05-26T00:00:00,51.8,42.5,56.2,24
512,ns02,2023-05-27T00:00:00,53.2,44.1,63.1,24
513,ns02,2023-05-28T00:00:00,64.2,48.2,77.1,24
514,ns02,2023-05-29T00:00:00,54.1,47,63.4,24
515,ns02,2023-05-30T00:00:00,52.9,49.6,56.2,24
516,ns02,2023-05-31T00:00:00,52.9,46,59.7,24
517,ns02,2023-06-01T00:00:00,52.7,45.8,57.3,24